Location: Newark
(34.1333°N, 7.9667°W)
Time: 22:58:08
(UTC+00:00)

ITAMSAT 1 - Pass Details

Date: 23 April 2024
Orbit: 781 x 796 km, 98.8° (Epoch: 28 May)

Event Time Altitude Azimuth Distance (km) Brightness Sun altitude
Exits shadow 21:48:14 28° 233° (SW) 1,444 9.0 -29.2°
Maximum altitude 21:49:37 33° 262° (W) 1,323 9.0 -29.4°
Drops below altitude 10° 21:54:17 10° 326° (NW) 2,370 11.0 -30.1°
Sets 21:56:52 0° 336° (NNW) 3,303 11.9 -30.5°
